Home > Weather > Annapolis County > Past weeks

Flag for Canada Past Weather in Annapolis County, Nova Scotia, Canada — Yesterday and Last 2 Weeks

Now
60 °F

Cool.


Feels Like: 60 °F
Forecast: 62 / 75 °F
Wind: 5 mph from Southwest

Location: Kejimkujik 1

Current Time: Aug 25, 2016 at 5:18:19 AM

Latest Report: Aug 25, 2016 at 4:00 AM


Visibility: N/A

Pressure: 30.12 "Hg

Humidity: 93%

Dew Point: 58 °F

Location of Annapolis CountyLocation

Past Weather in Annapolis County — Graph

°F

Annapolis County Temperature Yesterday

Maximum temperature yesterday: 82 °F (at 3:00 PM)
Minimum temperature yesterday: 53 °F (at 6:00 AM)
Average temperature yesterday: 67 °F

High & Low Weather Summary for the Past Weeks

 TemperatureHumidityPressure
High87 °F (Aug 11, 4:00 PM)100% (Aug 15, 4:00 AM)30.24 "Hg (Aug 15, 4:00 AM)
Low51 °F (Aug 10, 5:00 AM)32% (Aug 10, 1:00 PM)29.71 "Hg (Aug 17, 4:00 PM)
Average68 °F79%29.99 "Hg
* Reported Aug 10 4:00 AM — Aug 25 4:00 AM, Annapolis County, Weather by CustomWeather, © 2016

Note: Actual official high and low records may vary slightly from our data, if they occured in-between our weather recording intervals... More about our weather records

Advertising

Annapolis County Weather History for the Previous 24 Hours

Scroll right to see more
 ConditionsComfort  
Time TempWeatherWind HumidityBarometerVisibility
4:00 AM
Thu, Aug 25
60 °FCool.5 mph93%30.12 "HgN/A
3:00 AM60 °FCool.5 mph90%30.12 "HgN/A
2:00 AM60 °FCool.5 mph86%30.13 "HgN/A
1:00 AM61 °FCool.3 mph83%30.14 "HgN/A
12:00 AM63 °FMild.3 mph79%30.15 "HgN/A
11:00 PM
Wed, Aug 24
65 °FMild.5 mph75%30.16 "HgN/A
10:00 PM66 °FMild.5 mph72%30.17 "HgN/A
9:00 PM68 °FMild.5 mph66%30.17 "HgN/A
8:00 PM71 °FMild.5 mph60%30.16 "HgN/A
7:00 PM74 °FMild.6 mph54%30.15 "HgN/A
6:00 PM78 °FWarm.6 mph47%30.14 "HgN/A
5:00 PM81 °FWarm.7 mph45%30.14 "HgN/A
4:00 PM82 °FWarm.8 mph43%30.14 "HgN/A
3:00 PM82 °FWarm.7 mph41%30.16 "HgN/A
2:00 PM81 °FWarm.7 mph43%30.17 "HgN/A
1:00 PM81 °FWarm.5 mph49%30.18 "HgN/A
12:00 PM76 °FMild.5 mph53%30.18 "HgN/A
11:00 AM72 °FMild.3 mph68%30.19 "HgN/A
10:00 AM69 °FMild.3 mph71%30.20 "HgN/A
9:00 AM65 °FMild.2 mph81%30.19 "HgN/A
8:00 AM57 °FCool.1 mph94%30.19 "HgN/A
7:00 AM54 °FCool.2 mph94%30.18 "HgN/A
6:00 AM53 °FCool.1 mph85%30.17 "HgN/A
5:00 AM54 °FCool.2 mph90%30.18 "HgN/A
Weather by CustomWeather, © 2016

See weather overviewHow to use our weather pages